Vertical_Velocity
-1 -1 -1 -1 -1 -1 -1 -1 -1 -2 -2 -2 -2 -2 -2 -2 -2 -2 -2 -2 -2 -2 -3 -3 -3 -3 -3 -3 -3 -3 -3 -2 -2 -2 -2 -2 -2 -1 -1 -2 -2 -3 -4 -3 -2 -1 -3 -2 -1 -1 -1 -1 -1 -1 -0 -1 -1 -1 -1 -0 1 2 3 3 3 3 4 4 4 3 2 1 -0 -2 -4 -5 -5 -5 -4 -4 -5 -6 -8 -7 -4 -2 -0 -1 -2 -3 -2 -2 -2 -3 -4 -3 -3 -1 0 1 1 0 -0
-1 -1 -1 -1 -2 -2 -2 -2 -2 -2 -2 -2 -2 -2 -2 -2 -2 -2 -3 -3 -3 -3 -3 -3 -3 -3 -3 -3 -3 -3 -3 -3 -3 -3 -3 -3 -3 -3 -2 -2 -3 -3 -4 -4 -3 -2 -4 -5 -4 -2 -2 -2 -2 -1 -1 -1 -2 -2 -2 -2 -1 0 1 1 2 3 4 4 4 3 2 2 2 1 -0 -2 -3 -4 -4 -4 -3 -4 -5 -7 -8 -6 -3 -1 -1 -2 -3 -2 -2 -2 -3 -4 -4 -3 -1 0 1 0 -0
-2 -1 -1 -2 -2 -2 -2 -2 -2 -2 -3 -3 -3 -3 -3 -3 -3 -3 -3 -3 -3 -3 -3 -3 -3 -3 -3 -3 -3 -3 -3 -3 -3 -3 -3 -3 -3 -4 -4 -4 -4 -4 -5 -5 -4 -3 -4 -6 -6 -4 -4 -4 -3 -3 -2 -2 -2 -2 -3 -3 -2 -2 -2 -1 -1 1 3 4 4 4 3 2 1 1 1 1 -0 -1 -3 -3 -3 -3 -3 -5 -7 -8 -8 -5 -2 -1 -2 -3 -3 -2 -2 -3 -4 -3 -2 -1 -0 -0 -0
-2 -2 -2 -2 -2 -2 -3 -3 -3 -3 -3 -3 -3 -3 -3 -3 -3 -3 -3 -3 -3 -3 -3 -3 -3 -3 -3 -3 -3 -3 -3 -3 -3 -3 -4 -4 -4 -5 -5 -5 -5 -6 -6 -6 -6 -5 -4 -7 -7 -6 -6 -6 -5 -4 -4 -4 -3 -3 -3 -3 -3 -3 -3 -4 -3 -2 -0 1 2 3 4 3 2 1 1 1 1 0 -1 -2 -2 -3 -3 -3 -4 -6 -8 -8 -6 -4 -1 -2 -3 -3 -2 -3 -3 -3 -3 -2 -1 -0 0
-3 -3 -3 -2 -2 -3 -3 -3 -3 -3 -3 -3 -3 -3 -3 -3 -3 -3 -3 -3 -3 -2 -2 -3 -3 -3 -3 -3 -3 -3 -3 -3 -3 -4 -4 -4 -5 -5 -6 -6 -6 -7 -7 -7 -7 -6 -5 -7 -8 -7 -7 -7 -7 -7 -6 -6 -6 -5 -5 -4 -3 -3 -4 -4 -5 -4 -3 -3 -2 -1 1 2 3 3 3 2 1 1 1 -1 -2 -3 -3 -2 -2 -3 -5 -7 -8 -8 -5 -2 -2 -2 -3 -2 -2 -3 -4 -3 -2 -1 -1
-3 -3 -3 -3 -3 -3 -3 -3 -3 -3 -3 -3 -3 -3 -3 -3 -3 -3 -3 -3 -2 -2 -2 -3 -3 -3 -3 -3 -3 -3 -3 -3 -4 -4 -4 -5 -5 -5 -6 -6 -6 -7 -7 -8 -7 -7 -6 -7 -7 -8 -7 -8 -8 -8 -8 -8 -9 -8 -8 -6 -5 -5 -4 -5 -5 -5 -5 -5 -5 -4 -3 -2 -1 1 4 5 4 2 1 -0 -2 -3 -3 -3 -2 -1 -1 -4 -6 -9 -9 -5 -3 -1 -1 -1 -1 -2 -3 -4 -4 -3 -3
-2 -3 -3 -3 -3 -3 -3 -3 -3 -3 -3 -3 -3 -3 -3 -3 -3 -3 -3 -3 -2 -2 -2 -3 -3 -3 -3 -3 -3 -3 -3 -4 -4 -4 -4 -5 -5 -5 -5 -5 -6 -6 -6 -7 -7 -6 -6 -6 -6 -6 -6 -6 -7 -7 -8 -8 -9 -10 -10 -9 -8 -7 -6 -7 -6 -6 -6 -6 -6 -6 -6 -5 -5 -4 -1 2 5 5 3 0 -1 -2 -3 -4 -4 -2 -1 -0 -2 -5 -8 -8 -6 -3 -1 -1 -1 -1 -2 -3 -5 -6 -5
-2 -3 -3 -3 -3 -3 -3 -3 -3 -3 -3 -3 -3 -3 -3 -3 -3 -3 -3 -3 -3 -2 -2 -3 -3 -3 -3 -3 -3 -4 -4 -4 -4 -4 -5 -5 -4 -4 -4 -4 -5 -5 -5 -6 -6 -6 -5 -5 -5 -5 -5 -5 -5 -6 -6 -7 -8 -9 -9 -10 -9 -9 -8 -8 -8 -8 -7 -7 -7 -6 -6 -6 -6 -6 -6 -4 -1 2 4 3 1 -1 -2 -3 -3 -3 -3 -1 1 -0 -3 -7 -8 -7 -4 -2 -2 -1 -1 -1 -3 -5 -5
-3 -3 -3 -3 -3 -2 -2 -2 -2 -3 -3 -3 -3 -3 -3 -3 -3 -3 -3 -3 -2 -2 -2 -3 -3 -3 -3 -3 -4 -4 -4 -4 -4 -5 -5 -5 -4 -4 -4 -4 -4 -4 -4 -5 -5 -5 -5 -5 -5 -5 -4 -4 -4 -5 -5 -6 -7 -7 -8 -9 -10 -9 -9 -10 -10 -10 -8 -8 -8 -8 -8 -7 -7 -7 -8 -7 -6 -4 -1 2 3 2 0 -1 -2 -3 -3 -3 -1 0 1 -2 -5 -7 -7 -5 -3 -2 -2 -1 -1 -2 -3
-3 -3 -3 -3 -3 -2 -2 -2 -2 -2 -2 -2 -2 -2 -3 -3 -2 -2 -3 -2 -2 -2 -2 -2 -3 -3 -3 -4 -4 -4 -4 -5 -5 -5 -5 -5 -5 -5 -4 -4 -4 -4 -4 -4 -4 -5 -5 -5 -5 -5 -5 -5 -4 -4 -4 -5 -6 -6 -7 -8 -8 -9 -9 -10 -10 -10 -10 -10 -10 -10 -10 -9 -9 -9 -9 -9 -9 -8 -6 -3 -0 2 3 2 0 -1 -2 -3 -3 -2 0 1 -1 -4 -7 -7 -5 -3 -1 -1 -0 -0 -1
-3 -3 -3 -3 -3 -3 -2 -2 -2 -2 -2 -2 -2 -2 -2 -2 -2 -2 -2 -2 -2 -2 -2 -2 -2 -3 -3 -4 -4 -4 -4 -4 -5 -5 -5 -5 -5 -5 -5 -4 -4 -3 -3 -3 -3 -4 -4 -5 -5 -6 -5 -5 -5 -5 -5 -5 -6 -6 -6 -7 -7 -7 -8 -8 -9 -10 -10 -10 -11 -11 -11 -10 -10 -10 -10 -11 -11 -10 -9 -7 -5 -2 1 2 2 1 -1 -2 -3 -3 -3 -0 1 0 -3 -6 -7 -6 -2 -1 -0 -0 0
-3 -3 -3 -3 -3 -3 -2 -2 -2 -2 -2 -2 -2 -2 -2 -2 -2 -2 -3 -3 -2 -2 -2 -2 -2 -3 -3 -4 -4 -4 -4 -4 -4 -4 -4 -4 -4 -4 -4 -4 -3 -3 -3 -3 -3 -3 -3 -4 -5 -5 -5 -5 -6 -6 -5 -5 -6 -6 -7 -7 -7 -7 -8 -8 -8 -8 -9 -9 -10 -10 -10 -11 -10 -10 -10 -11 -12 -11 -11 -10 -8 -6 -4 -1 0 1 1 -0 -1 -3 -4 -3 -1 0 0 -3 -6 -6 -4 -3 -1 0 1
-3 -3 -3 -3 -3 -3 -3 -2 -2 -2 -3 -2 -2 -2 -2 -2 -2 -2 -3 -3 -3 -2 -2 -2 -2 -3 -3 -3 -4 -4 -4 -4 -4 -3 -3 -3 -3 -3 -3 -3 -2 -3 -3 -3 -3 -3 -3 -3 -4 -4 -5 -5 -5 -5 -5 -5 -5 -6 -6 -7 -7 -7 -8 -8 -8 -8 -8 -8 -9 -9 -10 -10 -10 -10 -10 -11 -11 -11 -11 -11 -10 -10 -9 -6 -4 -1 1 1 0 -1 -3 -4 -3 -2 -0 -0 -2 -5 -6 -4 -2 -0 1
-3 -3 -3 -3 -3 -3 -3 -3 -3 -3 -3 -3 -2 -2 -2 -2 -2 -3 -3 -3 -3 -3 -3 -3 -3 -2 -2 -3 -3 -3 -4 -3 -3 -2 -2 -1 -1 -1 -2 -2 -2 -3 -3 -3 -3 -3 -3 -3 -3 -4 -4 -4 -4 -4 -4 -4 -5 -5 -5 -5 -5 -6 -6 -7 -7 -7 -8 -8 -8 -8 -8 -8 -8 -9 -9 -10 -10 -10 -10 -10 -10 -10 -11 -10 -9 -6 -3 -1 0 0 -1 -2 -3 -3 -2 0 1 -1 -4 -5 -5 -3 -1
-3 -3 -3 -3 -3 -3 -3 -3 -3 -3 -3 -3 -3 -2 -3 -3 -3 -3 -3 -3 -3 -3 -3 -3 -3 -2 -2 -2 -2 -2 -2 -2 -2 -1 -1 -1 -1 -1 -2 -3 -3 -3 -3 -4 -4 -4 -4 -4 -4 -4 -4 -4 -4 -4 -3 -4 -4 -4 -4 -4 -4 -4 -4 -5 -6 -6 -7 -7 -7 -7 -7 -7 -7 -8 -8 -9 -9 -9 -9 -9 -9 -10 -10 -10 -10 -10 -8 -5 -2 -0 1 -0 -2 -3 -3 -1 -0 -1 -2 -4 -6 -5 -4
-3 -2 -2 -2 -3 -3 -3 -2 -2 -3 -3 -3 -3 -2 -3 -3 -3 -3 -3 -3 -3 -3 -3 -3 -3 -2 -2 -2 -1 -1 -0 -0 -1 -1 -1 -1 -2 -2 -3 -4 -4 -4 -4 -5 -5 -5 -5 -5 -5 -5 -5 -5 -5 -5 -4 -5 -5 -4 -4 -4 -3 -3 -3 -3 -4 -4 -5 -6 -6 -6 -6 -6 -7 -7 -7 -8 -8 -7 -7 -8 -8 -9 -9 -9 -10 -10 -10 -9 -7 -4 -0 1 0 -1 -2 -3 -3 -2 -0 -2 -4 -6 -6
-3 -2 -2 -2 -2 -2 -2 -2 -2 -2 -2 -2 -2 -2 -2 -2 -2 -2 -2 -3 -3 -3 -3 -3 -2 -2 -2 -1 -1 0 1 1 0 -0 -1 -2 -3 -3 -4 -5 -5 -5 -6 -6 -6 -6 -6 -6 -6 -6 -7 -7 -7 -7 -7 -6 -7 -7 -6 -6 -5 -4 -4 -3 -3 -4 -4 -5 -5 -5 -5 -6 -6 -6 -7 -7 -7 -6 -6 -6 -7 -7 -8 -8 -8 -9 -10 -10 -9 -8 -5 -1 1 1 -1 -3 -4 -3 -2 -1 -2 -4 -5
-2 -2 -2 -2 -2 -2 -2 -2 -2 -2 -2 -2 -2 -2 -2 -2 -2 -2 -2 -2 -2 -2 -2 -2 -2 -2 -2 -1 -1 -0 0 0 -0 -1 -2 -3 -4 -4 -4 -5 -5 -6 -7 -7 -7 -7 -8 -8 -8 -8 -8 -8 -8 -8 -8 -8 -8 -8 -8 -8 -7 -7 -6 -5 -5 -5 -5 -5 -5 -5 -5 -6 -6 -6 -7 -6 -6 -6 -5 -6 -6 -6 -6 -7 -7 -8 -8 -9 -10 -10 -9 -5 -1 1 1 -1 -3 -4 -4 -2 -1 -2 -3
-2 -2 -2 -2 -2 -2 -2 -2 -2 -2 -2 -2 -2 -2 -2 -2 -2 -2 -2 -2 -2 -2 -2 -2 -2 -2 -1 -1 -1 -1 -1 -2 -2 -3 -3 -3 -4 -4 -4 -5 -5 -6 -6 -7 -8 -8 -8 -8 -9 -9 -8 -8 -8 -8 -8 -8 -8 -8 -9 -9 -8 -8 -8 -8 -7 -7 -7 -7 -6 -6 -6 -6 -7 -7 -7 -7 -6 -6 -6 -6 -6 -6 -6 -6 -6 -6 -7 -8 -8 -9 -9 -8 -6 -3 -0 -0 -1 -3 -4 -3 -2 -1 -1
-2 -2 -2 -2 -2 -2 -2 -2 -2 -2 -1 -2 -2 -2 -2 -2 -2 -2 -2 -2 -2 -2 -2 -2 -1 -1 -1 -1 -1 -2 -2 -3 -3 -4 -4 -4 -4 -5 -5 -5 -5 -6 -6 -7 -7 -8 -8 -8 -8 -9 -9 -8 -8 -8 -8 -8 -8 -8 -8 -8 -8 -8 -9 -9 -9 -9 -9 -8 -8 -7 -6 -7 -7 -8 -7 -7 -7 -7 -7 -7 -7 -7 -6 -5 -5 -5 -5 -6 -7 -7 -8 -9 -9 -7 -4 -1 0 -1 -3 -3 -2 -1 1
-2 -2 -2 -2 -2 -2 -2 -2 -2 -2 -2 -2 -2 -2 -2 -2 -2 -2 -2 -2 -2 -2 -1 -1 -1 -1 -1 -1 -2 -2 -3 -3 -3 -4 -4 -4 -5 -5 -5 -5 -5 -6 -6 -6 -7 -7 -7 -7 -7 -8 -8 -8 -7 -7 -7 -7 -7 -7 -7 -7 -7 -8 -8 -9 -9 -9 -9 -9 -8 -8 -7 -8 -8 -8 -8 -8 -8 -8 -8 -8 -8 -8 -7 -6 -6 -5 -5 -5 -5 -6 -7 -8 -9 -9 -8 -4 -0 2 0 -1 -2 -1 -0
-2 -2 -2 -2 -2 -1 -1 -1 -1 -1 -1 -1 -2 -2 -2 -1 -2 -2 -2 -2 -2 -2 -1 -1 -1 -1 -1 -2 -2 -3 -3 -3 -3 -3 -4 -4 -4 -5 -6 -6 -6 -6 -6 -6 -6 -6 -6 -6 -7 -7 -7 -7 -7 -6 -6 -6 -6 -6 -7 -7 -7 -7 -8 -8 -9 -9 -10 -9 -9 -9 -8 -9 -9 -9 -9 -9 -10 -10 -10 -10 -9 -9 -8 -8 -7 -6 -5 -5 -5 -5 -6 -7 -8 -9 -9 -7 -3 0 2 1 -1 -2 -2
-1 -1 -1 -1 -1 -1 -1 -1 -1 -1 -1 -1 -1 -1 -1 -1 -1 -1 -1 -1 -1 -1 -1 -1 -1 -1 -1 -2 -2 -3 -3 -3 -3 -3 -4 -4 -4 -4 -5 -6 -6 -6 -6 -6 -6 -6 -6 -6 -6 -6 -6 -6 -6 -6 -6 -6 -6 -6 -6 -7 -7 -7 -7 -8 -8 -9 -9 -10 -10 -9 -9 -9 -9 -9 -9 -10 -11 -11 -11 -10 -10 -10 -9 -9 -8 -7 -7 -6 -5 -5 -5 -5 -6 -7 -8 -8 -7 -4 1 2 0 -2 -2
-1 -1 -1 -1 -1 -1 -1 -1 -1 -0 -0 -0 -0 -0 -0 0 0 0 -0 -0 0 -0 -0 -1 -1 -1 -2 -2 -2 -2 -3 -4 -4 -4 -3 -4 -5 -5 -5 -6 -6 -6 -5 -6 -6 -6 -6 -6 -6 -5 -5 -5 -5 -6 -6 -6 -6 -6 -6 -6 -7 -7 -7 -7 -7 -8 -8 -9 -10 -10 -9 -10 -10 -10 -10 -10 -11 -11 -11 -11 -10 -10 -9 -9 -9 -8 -8 -7 -6 -5 -4 -4 -4 -5 -6 -8 -8 -7 -3 1 1 0 -2
-1 -1 -1 -1 -1 -1 -0 -0 -0 -0 -0 -0 -0 -0 -0 0 1 1 0 0 -0 -0 -1 -1 -1 -2 -2 -2 -3 -3 -3 -4 -5 -6 -5 -4 -4 -5 -5 -5 -5 -6 -5 -5 -5 -6 -6 -6 -5 -5 -5 -5 -5 -5 -6 -6 -7 -7 -7 -7 -7 -6 -6 -6 -7 -7 -8 -9 -10 -10 -10 -11 -11 -11 -11 -11 -11 -10 -10 -11 -11 -10 -10 -9 -9 -9 -8 -7 -6 -6 -5 -4 -4 -4 -4 -6 -7 -8 -7 -3 1 2 -1
-1 -1 -1 -1 -1 -1 -0 -0 -0 -0 -0 0 0 0 -0 0 0 1 0 0 -0 -0 -1 -1 -2 -2 -2 -3 -3 -3 -3 -4 -5 -6 -6 -5 -4 -4 -5 -5 -5 -5 -5 -5 -5 -5 -6 -6 -6 -5 -5 -5 -5 -5 -5 -6 -7 -7 -8 -7 -7 -7 -6 -6 -6 -7 -7 -8 -9 -10 -11 -11 -11 -11 -11 -11 -11 -11 -10 -10 -10 -10 -10 -9 -9 -9 -8 -7 -7 -6 -5 -4 -4 -4 -3 -4 -5 -6 -7 -6 -2 0 0
-1 -1 -1 -1 -1 -1 -1 -0 -0 -0 -0 -0 0 0 -0 -1 -0 -0 0 -1 -1 -1 -1 -2 -2 -3 -3 -3 -3 -3 -3 -3 -4 -5 -5 -5 -5 -4 -4 -4 -4 -5 -5 -5 -5 -5 -5 -5 -6 -6 -6 -6 -6 -5 -5 -5 -6 -7 -8 -8 -8 -7 -7 -7 -6 -6 -7 -7 -8 -9 -10 -10 -11 -11 -11 -11 -11 -11 -11 -10 -10 -9 -9 -9 -9 -8 -8 -8 -7 -6 -5 -5 -4 -4 -3 -3 -3 -4 -5 -6 -5 -1 1
-1 -1 -1 -1 -1 -1 -1 -1 -1 -1 -1 -0 -0 0 1 -1 -1 -1 -1 -1 -1 -2 -2 -3 -3 -3 -3 -3 -3 -2 -2 -3 -3 -4 -4 -5 -5 -4 -4 -4 -4 -4 -4 -4 -4 -4 -4 -5 -5 -6 -6 -6 -6 -6 -6 -5 -6 -7 -7 -8 -8 -8 -8 -8 -7 -7 -7 -7 -7 -8 -9 -10 -10 -10 -10 -10 -10 -11 -11 -10 -10 -9 -9 -8 -8 -8 -8 -7 -6 -5 -5 -5 -4 -3 -2 -2 -1 -1 -1 -3 -3 -3 -0
-1 -1 -1 -1 -1 -1 -1 -1 -1 -1 -1 -1 -1 -1 0 0 -1 -2 -2 -2 -1 -2 -2 -2 -2 -3 -3 -4 -4 -3 -2 -2 -2 -3 -4 -4 -5 -5 -4 -4 -4 -4 -4 -4 -4 -4 -5 -5 -5 -6 -6 -6 -7 -7 -7 -6 -6 -6 -7 -8 -9 -9 -9 -9 -9 -8 -8 -7 -7 -7 -8 -9 -9 -10 -10 -9 -10 -10 -10 -10 -9 -9 -9 -8 -7 -7 -7 -7 -6 -6 -5 -4 -3 -3 -2 -2 -1 -0 -0 -0 -1 -2 -1
-1 -1 -1 -1 -1 -1 -1 -1 -1 -1 -1 -1 -1 -1 -1 -1 -1 -1 -2 -3 -2 -2 -2 -2 -2 -2 -3 -3 -4 -4 -3 -2 -2 -2 -4 -4 -4 -5 -5 -4 -4 -4 -3 -3 -4 -4 -4 -5 -5 -6 -6 -6 -7 -7 -8 -6 -6 -6 -6 -7 -8 -9 -9 -9 -10 -10 -9 -8 -8 -7 -7 -8 -9 -9 -9 -9 -9 -9 -9 -9 -10 -9 -8 -8 -8 -8 -7 -7 -7 -6 -5 -4 -4 -4 -4 -3 -2 -1 -1 -0 0 1 1
-2 -2 -1 -1 -1 -1 -1 -1 -1 -1 -1 -1 -2 -2 -2 -1 -1 -1 -1 -2 -3 -3 -3 -3 -3 -3 -3 -3 -3 -3 -3 -3 -2 -2 -3 -3 -4 -4 -4 -4 -4 -4 -4 -3 -4 -4 -4 -4 -5 -5 -6 -7 -7 -7 -8 -7 -7 -6 -6 -6 -7 -8 -9 -9 -10 -10 -10 -10 -9 -8 -8 -8 -9 -9 -9 -8 -8 -8 -8 -9 -9 -9 -8 -8 -9 -8 -7 -7 -6 -5 -4 -3 -3 -4 -4 -4 -4 -3 -2 -2 -1 -1 -2
-1 -1 -1 -1 -1 -1 -1 -1 -1 -1 -1 -1 -1 -2 -2 -1 -1 -2 -2 -2 -2 -3 -3 -3 -3 -3 -3 -3 -4 -4 -3 -3 -3 -3 -2 -2 -3 -3 -4 -4 -3 -3 -4 -4 -4 -4 -5 -5 -5 -5 -6 -7 -7 -7 -8 -8 -7 -7 -7 -6 -6 -7 -8 -9 -9 -10 -11 -11 -10 -9 -9 -9 -9 -9 -9 -8 -7 -7 -7 -8 -8 -8 -8 -8 -8 -8 -8 -6 -4 -3 -3 -4 -4 -5 -5 -5 -5 -5 -4 -3 -4 -4 -6
-2 -1 -2 -1 -1 -2 -2 -2 -2 -2 -1 -1 -2 -2 -2 -2 -2 -2 -3 -3 -2 -2 -2 -2 -2 -3 -3 -3 -4 -4 -4 -3 -3 -3 -3 -2 -2 -2 -3 -3 -3 -3 -3 -4 -4 -4 -4 -5 -5 -5 -6 -6 -7 -7 -8 -8 -8 -8 -7 -7 -6 -6 -7 -8 -9 -9 -10 -11 -11 -10 -9 -9 -9 -10 -10 -9 -8 -7 -6 -7 -7 -8 -8 -7 -7 -7 -7 -6 -4 -4 -4 -5 -6 -6 -6 -5 -4 -3 -2 -1 -1 -1 -2
-2 -2 -2 -2 -1 -1 -2 -2 -2 -2 -2 -2 -2 -2 -3 -3 -3 -2 -2 -2 -3 -2 -2 -2 -3 -3 -3 -3 -3 -4 -4 -3 -3 -3 -3 -3 -2 -1 -2 -2 -3 -3 -3 -4 -4 -4 -4 -5 -5 -5 -6 -6 -7 -7 -8 -8 -8 -8 -8 -8 -7 -7 -6 -7 -7 -8 -9 -10 -10 -10 -10 -10 -9 -10 -10 -10 -9 -7 -6 -6 -6 -7 -8 -8 -8 -7 -6 -5 -4 -4 -5 -5 -6 -6 -7 -6 -4 -3 -1 -1 -1 0 1
-1 -2 -2 -2 -2 -2 -1 -2 -2 -2 -2 -2 -2 -2 -2 -3 -3 -3 -2 -2 -3 -3 -3 -3 -3 -3 -3 -3 -3 -3 -3 -3 -2 -2 -2 -2 -2 -3 -2 -2 -3 -3 -4 -4 -4 -4 -5 -5 -5 -5 -6 -6 -7 -7 -7 -8 -9 -9 -9 -8 -8 -8 -7 -7 -7 -7 -8 -8 -9 -10 -10 -10 -10 -10 -10 -10 -10 -9 -7 -7 -6 -7 -7 -8 -8 -7 -7 -5 -3 -3 -5 -5 -6 -6 -7 -6 -5 -5 -4 -5 -5 -5 -5
-1 -1 -2 -2 -2 -2 -2 -1 -2 -2 -2 -2 -2 -2 -2 -2 -2 -3 -3 -3 -3 -3 -3 -3 -3 -3 -4 -4 -4 -3 -3 -3 -3 -3 -2 -1 -2 -2 -2 -3 -3 -3 -4 -4 -4 -5 -5 -6 -6 -6 -6 -6 -6 -7 -7 -8 -9 -9 -9 -9 -9 -8 -8 -8 -7 -7 -7 -7 -8 -8 -9 -9 -9 -9 -10 -10 -10 -9 -9 -8 -7 -7 -7 -7 -7 -8 -8 -6 -5 -4 -5 -5 -6 -6 -6 -7 -6 -6 -6 -6 -7 -8 -9
-2 -1 -1 -1 -2 -2 -2 -2 -2 -2 -2 -2 -2 -2 -2 -2 -2 -2 -3 -3 -2 -2 -2 -2 -3 -3 -4 -4 -4 -4 -4 -4 -4 -3 -3 -2 -2 -2 -2 -2 -3 -3 -3 -4 -5 -5 -6 -6 -6 -7 -6 -6 -6 -6 -7 -8 -8 -9 -9 -10 -10 -9 -10 -9 -9 -8 -8 -7 -7 -7 -8 -8 -9 -9 -9 -10 -10 -10 -9 -9 -8 -8 -8 -7 -7 -8 -9 -8 -6 -5 -4 -5 -5 -5 -5 -5 -5 -5 -5 -4 -4 -4 -3
-2 -2 -2 -2 -2 -2 -2 -2 -2 -2 -2 -2 -2 -2 -2 -2 -2 -2 -1 -2 -2 -2 -1 -1 -2 -2 -3 -3 -3 -4 -4 -4 -3 -3 -3 -3 -3 -3 -3 -3 -3 -3 -4 -4 -4 -5 -6 -6 -6 -6 -7 -7 -7 -7 -7 -8 -8 -9 -9 -10 -10 -10 -10 -10 -10 -10 -9 -8 -7 -7 -7 -7 -8 -8 -9 -9 -9 -10 -9 -9 -9 -8 -8 -8 -8 -8 -9 -10 -9 -7 -5 -5 -5 -5 -5 -4 -4 -3 -3 -2 -2 -2 0
-1 -2 -2 -2 -2 -2 -2 -2 -2 -2 -2 -2 -2 -2 -1 -1 -2 -2 -1 -2 -2 -2 -1 -2 -2 -2 -2 -2 -3 -3 -3 -3 -3 -3 -3 -3 -3 -3 -3 -3 -3 -4 -4 -5 -5 -5 -5 -5 -6 -6 -6 -7 -7 -7 -7 -8 -8 -9 -9 -10 -10 -10 -10 -11 -10 -10 -10 -9 -8 -7 -7 -7 -7 -8 -8 -9 -9 -9 -10 -9 -9 -9 -9 -8 -8 -8 -8 -10 -10 -10 -7 -6 -5 -5 -4 -4 -4 -3 -3 -2 -2 -1 0
-1 -1 -2 -2 -2 -2 -2 -2 -2 -2 -3 -2 -2 -2 -2 -1 -1 -2 -2 -2 -3 -3 -2 -1 -2 -3 -3 -3 -3 -4 -4 -3 -3 -3 -3 -3 -2 -3 -3 -3 -4 -4 -4 -5 -5 -5 -5 -5 -5 -6 -6 -7 -8 -8 -8 -8 -8 -9 -9 -10 -10 -10 -10 -10 -10 -10 -9 -9 -9 -8 -7 -6 -6 -7 -8 -8 -9 -9 -9 -9 -9 -9 -10 -9 -8 -8 -7 -9 -10 -11 -10 -8 -6 -5 -4 -4 -3 -3 -1 -2 -3 -3 -1
-1 -1 -1 -2 -2 -2 -2 -2 -3 -3 -3 -3 -3 -3 -3 -2 -1 -2 -2 -2 -3 -4 -4 -2 -2 -2 -3 -3 -3 -3 -4 -4 -3 -3 -3 -3 -3 -3 -3 -3 -3 -4 -5 -5 -5 -5 -5 -5 -5 -6 -6 -6 -7 -9 -10 -9 -9 -9 -9 -9 -9 -9 -9 -9 -9 -9 -8 -8 -8 -8 -7 -6 -6 -6 -6 -7 -7 -8 -8 -8 -9 -9 -10 -10 -9 -8 -7 -8 -9 -11 -12 -10 -8 -6 -4 -4 -4 -2 3 4 2 -0 -1
-1 -1 -1 -2 -2 -2 -2 -2 -2 -3 -3 -3 -3 -3 -3 -3 -2 -1 -1 -2 -2 -3 -4 -4 -3 -2 -2 -3 -3 -3 -3 -3 -3 -2 -2 -2 -2 -2 -3 -4 -4 -4 -4 -4 -5 -6 -6 -5 -5 -5 -6 -6 -6 -7 -9 -10 -10 -10 -9 -9 -8 -7 -7 -6 -6 -7 -6 -6 -6 -6 -6 -6 -5 -5 -5 -5 -6 -6 -6 -6 -7 -8 -9 -10 -10 -9 -7 -7 -8 -9 -11 -10 -9 -7 -5 -5 -5 -3 1 4 4 4 3
-1 -1 -1 -2 -2 -2 -2 -2 -2 -2 -3 -3 -3 -3 -3 -3 -3 -2 -2 -1 -2 -2 -3 -4 -4 -4 -4 -4 -4 -4 -4 -4 -4 -3 -2 -3 -3 -2 -2 -3 -4 -5 -5 -4 -4 -4 -6 -6 -6 -5 -6 -7 -7 -6 -6 -9 -10 -10 -9 -8 -8 -7 -6 -5 -5 -5 -5 -5 -5 -5 -5 -5 -5 -5 -5 -5 -4 -4 -4 -4 -5 -6 -8 -10 -10 -10 -7 -6 -6 -8 -9 -11 -10 -8 -6 -5 -5 -4 -3 -1 1 4 5
-1 -1 -1 -1 -2 -2 -2 -2 -2 -2 -2 -3 -3 -3 -3 -3 -3 -3 -3 -2 -1 -1 -3 -3 -4 -4 -5 -5 -5 -5 -5 -5 -4 -4 -4 -3 -3 -3 -3 -2 -1 -2 -5 -7 -6 -5 -4 -5 -5 -4 -3 -5 -6 -6 -6 -7 -8 -9 -9 -8 -8 -7 -6 -5 -5 -5 -4 -4 -5 -5 -4 -4 -5 -5 -5 -5 -4 -4 -3 -2 -3 -4 -6 -9 -10 -11 -9 -7 -6 -6 -7 -9 -10 -9 -8 -6 -5 -5 -4 -3 -2 -0 1
-1 -1 -1 -1 -1 -2 -2 -2 -2 -2 -2 -2 -3 -3 -3 -3 -3 -3 -3 -3 -2 -1 -2 -3 -3 -4 -4 -5 -5 -6 -5 -5 -4 -4 -4 -4 -2 -1 -3 -4 -4 -2 -1 -4 -7 -8 -6 -4 -4 -4 -2 -2 -3 -4 -5 -6 -7 -8 -9 -8 -8 -7 -6 -5 -4 -5 -4 -4 -4 -4 -3 -4 -4 -5 -6 -6 -6 -5 -4 -3 -2 -3 -4 -7 -10 -12 -11 -9 -7 -6 -6 -7 -8 -9 -9 -8 -7 -6 -5 -3 -0 1 -0
-2 -2 -2 -2 -2 -2 -2 -2 -2 -2 -2 -2 -2 -3 -3 -3 -3 -3 -4 -4 -3 -3 -2 -3 -3 -4 -4 -4 -4 -5 -6 -5 -5 -4 -3 -4 -4 -3 -0 -2 -5 -7 -5 -2 -3 -5 -6 -4 -4 -5 -6 -4 -3 -4 -5 -5 -6 -7 -9 -8 -8 -8 -7 -5 -5 -5 -5 -5 -4 -4 -3 -3 -3 -3 -4 -5 -6 -6 -5 -4 -3 -3 -3 -6 -9 -11 -13 -11 -9 -7 -5 -6 -7 -8 -8 -8 -8 -8 -6 -2 6 11 7
-1 -1 -1 -2 -2 -2 -2 -2 -2 -2 -2 -2 -3 -3 -3 -3 -3 -3 -4 -4 -5 -5 -4 -4 -4 -4 -4 -4 -4 -4 -6 -6 -6 -6 -6 -3 -3 -5 -6 -1 -0 -3 -7 -6 -4 -3 -5 -4 -2 -2 -6 -6 -5 -4 -6 -6 -5 -6 -8 -9 -9 -9 -9 -8 -6 -6 -6 -6 -5 -4 -3 -3 -2 -3 -3 -3 -4 -4 -5 -5 -5 -4 -3 -4 -7 -10 -13 -12 -11 -8 -6 -5 -6 -6 -6 -6 -7 -8 -7 -6 3 12 13
-1 -1 -1 -1 -1 -2 -2 -2 -2 -2 -2 -2 -2 -3 -3 -3 -4 -4 -3 -3 -3 -4 -4 -4 -4 -4 -4 -4 -4 -4 -5 -6 -6 -6 -8 -7 -2 0 -3 -3 0 3 1 -4 -5 -5 -6 -7 -5 -2 -2 -4 -5 -5 -6 -7 -6 -5 -5 -8 -9 -9 -9 -9 -8 -7 -7 -7 -6 -4 -2 -2 -2 -2 -2 -2 -2 -3 -3 -5 -5 -6 -5 -4 -6 -8 -12 -12 -11 -9 -7 -5 -5 -5 -5 -4 -4 -6 -9 -8 0 9 13
-1 -1 -1 -1 -1 -2 -2 -2 -2 -2 -2 -2 -2 -3 -3 -3 -4 -4 -4 -3 -3 -3 -3 -2 -3 -3 -4 -4 -5 -5 -5 -6 -7 -6 -5 -10 -8 -3 2 -2 -3 -1 5 2 -2 -4 -3 -8 -9 -6 -3 -5 -6 -7 -6 -7 -6 -4 -2 -4 -6 -7 -8 -9 -9 -9 -8 -8 -6 -5 -3 -2 -2 -2 -2 -2 -2 -2 -2 -3 -4 -6 -6 -6 -6 -8 -11 -12 -12 -10 -7 -5 -4 -4 -4 -4 -5 -6 -7 -1 -0 0 5
-1 -1 -2 -1 -1 -2 -2 -2 -2 -2 -2 -2 -2 -2 -3 -3 -3 -4 -4 -4 -4 -4 -3 -3 -2 -2 -3 -4 -4 -5 -7 -6 -7 -8 -7 -8 -12 -14 -10 -4 -4 -6 -1 5 4 1 2 0 -5 -9 -4 -5 -8 -9 -7 -7 -6 -5 -2 -1 -3 -5 -7 -8 -9 -10 -10 -9 -7 -6 -5 -4 -4 -3 -4 -3 -3 -3 -2 -2 -3 -4 -5 -5 -7 -8 -11 -12 -12 -10 -8 -6 -4 -4 -4 -5 -7 -7 1 14 12 3 -2
-1 -1 -1 -2 -2 -2 -2 -2 -2 -2 -2 -2 -2 -2 -2 -3 -3 -4 -4 -5 -5 -5 -4 -5 -5 -4 -2 -3 -3 -3 -6 -6 -6 -7 -11 -8 -9 -13 -19 -11 -5 -2 -6 1 3 2 -4 4 1 -4 -8 -5 -6 -7 -5 -3 -4 -5 -4 -2 -2 -3 -5 -7 -8 -9 -10 -10 -9 -7 -6 -5 -5 -4 -5 -4 -4 -4 -3 -2 -2 -2 -2 -2 -4 -7 -11 -12 -12 -12 -10 -8 -6 -5 -5 -5 -8 -8 4 18 20 14 4
-1 -1 -1 -2 -2 -2 -2 -2 -2 -2 -2 -2 -3 -3 -3 -3 -4 -4 -4 -4 -4 -4 -4 -4 -5 -6 -5 -4 -3 -2 -3 -6 -6 -5 -7 -8 -7 -7 -14 -20 -19 -14 -10 -10 -1 5 -1 -6 -2 2 -4 -5 -6 -5 -3 2 3 1 -3 -3 -3 -4 -5 -6 -7 -8 -9 -9 -9 -8 -7 -6 -5 -5 -5 -5 -5 -4 -3 -2 -1 0 1 1 -1 -5 -9 -9 -10 -10 -11 -10 -8 -7 -6 -7 -9 -12 -13 -3 9 18 15
-1 -1 -1 -2 -2 -2 -2 -1 -1 -1 -1 -1 -2 -3 -4 -4 -4 -4 -5 -4 -5 -5 -5 -4 -4 -5 -5 -5 -5 -4 -1 -4 -6 -7 -6 -9 -9 -7 -6 -15 -23 -26 -21 -22 -16 -4 15 1 -5 -3 6 1 -4 -7 -8 -3 1 3 -0 -3 -4 -5 -5 -5 -5 -6 -8 -8 -7 -7 -7 -6 -6 -5 -5 -5 -5 -4 -3 -1 1 2 2 2 -1 -4 -8 -8 -7 -7 -9 -10 -10 -9 -9 -10 -11 -15 -20 -20 -10 4 14
-1 -1 -1 -1 -2 -2 -2 -1 -1 -1 -1 -1 -1 -2 -4 -4 -5 -5 -5 -5 -6 -6 -6 -6 -5 -4 -5 -5 -5 -5 -4 -2 -4 -6 -6 -8 -12 -13 -8 -3 -5 -11 -18 -23 -32 -33 -15 1 0 -5 -2 2 1 -3 -9 -11 -8 -3 -0 -3 -4 -4 -5 -5 -5 -5 -6 -6 -6 -6 -6 -6 -6 -5 -5 -5 -5 -4 -3 -1 1 2 3 2 -0 -4 -8 -9 -8 -6 -7 -10 -11 -11 -11 -11 -13 -13 -7 -1 2 3 3
-2 -2 -1 -1 -1 -1 -1 -1 -2 -2 -1 -1 -1 -2 -3 -4 -4 -5 -5 -5 -5 -5 -5 -6 -6 -5 -6 -5 -5 -4 -5 -3 -3 -5 -6 -4 -7 -11 -15 -12 -9 -8 -8 -11 -18 -28 -39 -29 -14 -2 2 -2 -1 2 5 -5 -9 -9 -3 -2 -3 -4 -5 -5 -5 -4 -4 -4 -5 -5 -6 -6 -6 -6 -5 -5 -4 -4 -3 -1 0 1 2 2 0 -2 -6 -7 -6 -5 -7 -9 -11 -11 -10 -11 -12 -8 8 18 15 7 4
-2 -2 -2 -1 -1 -1 -1 -2 -2 -2 -2 -1 -1 -2 -2 -3 -3 -4 -4 -4 -4 -4 -4 -4 -5 -5 -5 -6 -6 -5 -4 -2 -2 -4 -7 -6 -4 -5 -10 -15 -16 -15 -15 -10 -5 -3 -8 -26 -34 -28 -3 3 -3 -7 4 7 2 -5 -7 -3 -3 -4 -5 -4 -4 -4 -4 -4 -4 -4 -5 -5 -6 -7 -6 -6 -5 -4 -3 -1 -0 0 0 0 -0 -2 -5 -5 -4 -4 -5 -8 -9 -10 -9 -10 -11 -7 7 10 10 9 9
-1 -1 -1 -1 -1 -1 -1 -2 -2 -2 -2 -2 -2 -2 -2 -3 -3 -3 -3 -4 -4 -3 -3 -4 -4 -5 -5 -5 -6 -6 -4 -3 -1 -0 -2 -7 -7 -4 -3 -6 -8 -9 -11 -15 -15 -10 -1 -0 -17 -35 -40 -11 -2 -5 -14 -2 5 5 -2 -4 -4 -4 -5 -4 -3 -3 -4 -4 -5 -5 -5 -4 -5 -6 -7 -7 -7 -6 -5 -2 -1 -1 -1 -1 -1 -2 -5 -4 -4 -3 -5 -5 -7 -8 -8 -9 -9 -6 -0 -1 -2 -2 1
-1 -1 -1 -1 -1 -1 -1 -2 -2 -2 -2 -2 -2 -2 -3 -3 -3 -3 -2 -3 -3 -3 -3 -4 -4 -5 -5 -5 -5 -6 -5 -4 -4 -2 1 -1 -4 -7 -5 -3 -4 -6 -5 -8 -12 -16 -18 -8 -4 -11 -36 -35 -15 4 3 -7 -5 1 5 4 0 -4 -7 -4 -3 -2 -3 -3 -4 -4 -6 -4 -4 -5 -7 -8 -8 -7 -6 -4 -2 -1 -2 -2 -2 -2 -3 -3 -3 -4 -6 -6 -7 -8 -8 -10 -11 -11 -10 -9 -9 -7 -3
-1 -1 -1 -1 -1 -1 -1 -1 -2 -2 -2 -2 -2 -3 -3 -3 -3 -3 -2 -2 -3 -3 -3 -3 -4 -5 -6 -6 -6 -6 -6 -3 -3 -5 -6 -2 -0 -2 -7 -5 -4 -4 -7 -6 -6 -8 -13 -17 -16 -14 -17 -37 -41 -28 4 7 2 -5 -5 2 3 1 -5 -5 -5 -4 -3 -3 -3 -4 -6 -6 -5 -4 -5 -6 -7 -6 -6 -4 -2 -2 -2 -3 -2 -2 -2 -2 -3 -4 -6 -6 -7 -8 -8 -9 -10 -11 -12 -13 -12 -8 3
-1 -1 -1 -1 -1 -1 -1 -1 -1 -2 -2 -2 -2 -3 -3 -3 -3 -3 -3 -3 -3 -3 -3 -3 -3 -3 -4 -5 -5 -5 -6 -4 -3 -3 -6 -7 -4 -1 -3 -7 -6 -4 -3 -4 -5 -5 -6 -9 -14 -18 -20 -25 -38 -48 -45 -14 1 4 -3 -5 -5 -3 -2 -2 -4 -6 -6 -4 -3 -3 -6 -7 -7 -5 -4 -5 -5 -5 -4 -3 -2 -2 -3 -3 -2 -1 -2 -3 -4 -5 -6 -6 -7 -7 -7 -8 -8 -10 -11 -15 -15 -9 5
-1 -1 -1 -1 -1 -1 -1 -1 -1 -2 -2 -2 -2 -2 -2 -3 -3 -3 -3 -3 -3 -3 -3 -3 -3 -3 -3 -5 -5 -5 -5 -5 -4 -3 -4 -6 -6 -4 -1 -4 -6 -7 -5 -3 -3 -2 -3 -2 -2 -5 -13 -19 -23 -30 -40 -37 -24 -9 -1 2 -2 -5 -4 1 0 -4 -8 -5 -3 -3 -4 -6 -7 -7 -6 -5 -4 -3 -3 -3 -4 -4 -3 -2 -1 -1 -1 -3 -5 -7 -7 -6 -6 -6 -6 -7 -8 -9 -11 -15 -15 -9 4
Height
3164 3164 3163 3163 3162 3162 3162 3161 3161 3160 3160 3160 3159 3159 3159 3158 3158 3158 3157 3157 3156 3156 3155 3155 3154 3154 3153 3153 3152 3151 3151 3150 3149 3149 3148 3147 3147 3146 3145 3144 3144 3143 3143 3143 3143 3142 3142 3141 3141 3140 3140 3140 3139 3139 3138 3138 3138 3138 3137 3137 3136 3136 3136 3136 3136 3136 3136 3136 3137 3137 3138 3139 3140 3141 3142 3142 3142 3142 3142 3142 3142 3143 3143 3144 3144 3144 3143 3143 3143 3143 3144 3146 3147 3148 3148 3148 3148 3149 3149 3150 3151 3152 3153
3163 3163 3162 3162 3162 3161 3161 3160 3160 3159 3159 3158 3158 3158 3158 3157 3157 3156 3156 3155 3155 3154 3154 3153 3153 3152 3152 3151 3150 3149 3149 3148 3148 3147 3146 3145 3144 3143 3143 3142 3142 3141 3140 3140 3140 3140 3139 3139 3138 3138 3138 3138 3137 3137 3136 3136 3136 3135 3135 3134 3134 3133 3133 3133 3133 3133 3133 3133 3133 3133 3133 3134 3134 3135 3136 3137 3138 3138 3138 3138 3138 3139 3140 3140 3141 3141 3141 3141 3141 3140 3141 3142 3143 3144 3145 3145 3146 3146 3147 3147 3148 3149 3150
3162 3162 3161 3161 3161 3160 3160 3159 3159 3158 3158 3157 3157 3157 3156 3156 3155 3155 3154 3154 3153 3153 3152 3152 3151 3150 3150 3149 3148 3148 3147 3146 3145 3144 3143 3143 3142 3141 3140 3140 3139 3138 3138 3138 3138 3137 3137 3136 3136 3136 3135 3135 3135 3134 3134 3134 3133 3133 3133 3132 3132 3131 3131 3130 3130 3129 3129 3129 3129 3129 3130 3130 3130 3130 3131 3132 3133 3133 3134 3135 3135 3135 3135 3136 3137 3138 3138 3138 3138 3138 3138 3138 3138 3140 3141 3142 3143 3143 3144 3144 3145 3145 3146
3161 3161 3160 3160 3159 3159 3158 3158 3158 3157 3157 3156 3156 3155 3155 3154 3154 3153 3153 3152 3152 3151 3151 3150 3149 3148 3148 3147 3146 3145 3144 3144 3143 3142 3141 3140 3139 3138 3138 3137 3137 3136 3135 3135 3135 3134 3134 3134 3133 3133 3133 3133 3132 3132 3132 3131 3131 3130 3130 3129 3129 3129 3128 3128 3127 3127 3127 3126 3126 3126 3126 3126 3126 3127 3127 3128 3128 3129 3129 3130 3130 3131 3131 3132 3132 3133 3134 3135 3135 3135 3135 3135 3135 3135 3137 3138 3139 3140 3141 3141 3142 3142 3143
3160 3160 3159 3159 3158 3158 3158 3157 3156 3156 3155 3155 3154 3154 3153 3153 3152 3152 3151 3150 3150 3149 3148 3148 3147 3146 3145 3145 3144 3143 3142 3141 3140 3139 3138 3137 3136 3136 3135 3134 3134 3133 3133 3132 3132 3131 3131 3131 3130 3130 3130 3129 3129 3129 3129 3128 3128 3128 3127 3127 3126 3126 3126 3125 3125 3124 3124 3123 3123 3123 3122 3122 3122 3123 3123 3123 3124 3124 3125 3126 3126 3126 3127 3127 3127 3128 3129 3130 3131 3132 3132 3132 3132 3132 3132 3133 3135 3136 3137 3138 3138 3139 3139
3159 3159 3158 3158 3157 3157 3156 3156 3155 3154 3154 3153 3153 3152 3151 3151 3150 3149 3149 3148 3148 3147 3146 3146 3145 3144 3143 3142 3141 3140 3139 3138 3137 3136 3135 3134 3133 3133 3132 3131 3131 3130 3129 3129 3128 3128 3128 3128 3127 3127 3126 3126 3126 3126 3126 3125 3125 3125 3124 3124 3123 3123 3123 3122 3122 3122 3121 3120 3120 3120 3119 3119 3118 3118 3119 3119 3120 3120 3121 3121 3122 3122 3122 3122 3123 3123 3124 3125 3126 3127 3128 3128 3129 3129 3129 3129 3130 3132 3133 3134 3135 3135 3136
3158 3158 3157 3157 3156 3155 3155 3154 3154 3153 3152 3152 3151 3150 3149 3149 3148 3147 3147 3146 3145 3145 3144 3143 3142 3141 3140 3139 3138 3137 3136 3135 3134 3133 3132 3131 3130 3129 3128 3128 3127 3127 3126 3126 3125 3125 3124 3124 3123 3123 3123 3123 3122 3122 3122 3122 3121 3121 3121 3121 3120 3120 3120 3119 3118 3118 3118 3117 3117 3116 3116 3116 3115 3115 3115 3115 3115 3116 3116 3116 3117 3117 3118 3118 3118 3118 3119 3119 3120 3122 3123 3124 3125 3125 3125 3126 3126 3127 3128 3130 3131 3132 3133
3158 3157 3156 3155 3155 3154 3153 3153 3152 3151 3151 3150 3149 3148 3148 3147 3146 3145 3144 3143 3143 3142 3141 3140 3139 3138 3137 3136 3135 3134 3133 3132 3131 3130 3129 3128 3127 3126 3126 3125 3124 3123 3123 3122 3122 3122 3121 3120 3120 3120 3119 3119 3119 3118 3118 3118 3118 3117 3117 3117 3117 3117 3116 3115 3115 3114 3114 3113 3113 3113 3112 3112 3112 3111 3111 3111 3111 3111 3112 3112 3112 3112 3113 3113 3113 3114 3114 3115 3115 3116 3118 3119 3120 3121 3122 3122 3122 3123 3123 3125 3127 3128 3129
3157 3156 3155 3154 3153 3153 3152 3151 3151 3150 3149 3148 3148 3147 3146 3145 3144 3143 3142 3141 3140 3139 3138 3138 3137 3135 3134 3133 3132 3131 3130 3128 3128 3127 3126 3125 3124 3123 3123 3122 3121 3121 3120 3119 3119 3118 3118 3117 3116 3116 3116 3115 3115 3115 3114 3114 3113 3113 3113 3113 3113 3113 3112 3112 3111 3110 3110 3110 3109 3108 3108 3108 3108 3108 3107 3107 3106 3106 3107 3107 3108 3108 3108 3108 3109 3109 3110 3110 3111 3111 3112 3113 3115 3116 3117 3118 3118 3118 3119 3120 3121 3123 3125
3155 3154 3154 3153 3152 3151 3150 3150 3149 3148 3147 3146 3146 3145 3144 3143 3142 3141 3140 3139 3138 3137 3136 3135 3134 3133 3131 3130 3129 3128 3127 3126 3125 3124 3123 3122 3122 3121 3120 3119 3119 3118 3117 3116 3116 3115 3114 3113 3113 3113 3112 3112 3112 3111 3111 3110 3110 3109 3109 3109 3109 3108 3108 3108 3107 3106 3106 3105 3105 3104 3104 3104 3103 3103 3103 3103 3102 3102 3102 3102 3103 3103 3103 3104 3104 3104 3105 3105 3106 3107 3107 3108 3109 3111 3112 3113 3114 3114 3115 3115 3116 3118 3120
3154 3153 3153 3152 3151 3150 3149 3148 3147 3146 3145 3144 3143 3143 3142 3141 3140 3139 3138 3137 3136 3135 3134 3133 3131 3130 3129 3128 3126 3125 3124 3123 3122 3121 3121 3120 3119 3118 3118 3117 3116 3115 3114 3114 3113 3112 3111 3111 3110 3109 3109 3109 3108 3108 3108 3107 3107 3106 3106 3105 3105 3104 3104 3103 3103 3102 3101 3101 3100 3100 3099 3099 3098 3098 3098 3098 3098 3098 3098 3098 3098 3098 3098 3099 3099 3099 3099 3100 3101 3102 3102 3103 3103 3105 3106 3108 3109 3110 3111 3111 3112 3113 3114
3153 3153 3152 3150 3149 3148 3148 3147 3146 3145 3144 3143 3142 3141 3140 3139 3138 3137 3136 3135 3133 3133 3132 3130 3129 3128 3127 3125 3124 3123 3122 3121 3120 3119 3118 3118 3117 3116 3115 3114 3113 3113 3112 3111 3110 3109 3108 3108 3107 3107 3106 3106 3105 3105 3104 3104 3104 3103 3102 3102 3102 3101 3100 3100 3099 3098 3097 3096 3095 3095 3094 3094 3093 3093 3093 3092 3092 3092 3093 3093 3093 3093 3093 3093 3094 3094 3094 3095 3095 3096 3097 3098 3098 3099 3100 3102 3103 3105 3106 3107 3107 3108 3109
3152 3151 3150 3149 3148 3147 3146 3146 3144 3143 3142 3141 3140 3139 3138 3137 3136 3135 3134 3133 3132 3130 3129 3128 3127 3126 3125 3123 3122 3121 3120 3119 3118 3117 3116 3115 3115 3114 3113 3112 3111 3110 3109 3108 3107 3106 3105 3104 3103 3103 3103 3102 3102 3101 3101 3100 3100 3099 3099 3098 3098 3097 3097 3096 3095 3094 3093 3092 3091 3090 3089 3089 3088 3088 3087 3087 3086 3086 3087 3087 3088 3088 3088 3088 3088 3089 3089 3089 3090 3090 3091 3092 3093 3093 3094 3095 3097 3099 3100 3101 3102 3103 3104
3151 3150 3149 3148 3147 3146 3145 3144 3143 3142 3141 3140 3139 3138 3137 3135 3134 3133 3132 3130 3129 3128 3127 3126 3125 3124 3123 3122 3120 3119 3118 3117 3116 3115 3114 3113 3112 3111 3110 3108 3108 3106 3105 3104 3103 3102 3101 3100 3099 3099 3098 3098 3097 3097 3096 3096 3095 3095 3094 3094 3093 3093 3092 3092 3091 3090 3089 3088 3087 3086 3085 3084 3084 3083 3082 3081 3081 3081 3081 3081 3081 3082 3082 3083 3083 3083 3083 3084 3084 3085 3085 3086 3087 3088 3089 3090 3091 3093 3094 3096 3097 3098 3098
3149 3148 3148 3147 3146 3145 3144 3143 3142 3140 3139 3138 3137 3136 3135 3133 3132 3131 3129 3128 3127 3126 3124 3123 3123 3122 3121 3120 3118 3118 3117 3115 3114 3113 3112 3111 3109 3108 3106 3105 3104 3103 3101 3100 3099 3098 3097 3096 3095 3094 3093 3092 3091 3091 3090 3089 3089 3088 3088 3088 3088 3088 3087 3087 3086 3086 3085 3084 3083 3082 3081 3080 3080 3079 3078 3077 3076 3076 3075 3075 3075 3076 3076 3077 3077 3078 3078 3078 3078 3079 3080 3080 3081 3082 3083 3084 3085 3086 3088 3089 3091 3092 3093
3148 3147 3146 3145 3144 3143 3142 3141 3140 3139 3138 3136 3135 3134 3133 3131 3130 3128 3127 3126 3124 3123 3122 3121 3120 3119 3118 3117 3117 3116 3115 3113 3112 3111 3109 3108 3106 3104 3103 3101 3100 3099 3097 3096 3094 3093 3092 3091 3090 3088 3087 3086 3085 3084 3083 3082 3081 3081 3081 3080 3080 3080 3080 3080 3080 3080 3080 3079 3079 3078 3077 3076 3075 3075 3074 3073 3072 3071 3071 3070 3070 3070 3070 3070 3071 3071 3072 3073 3073 3073 3074 3074 3075 3075 3076 3077 3078 3080 3081 3083 3084 3086 3087
3146 3145 3144 3143 3142 3141 3140 3139 3138 3137 3135 3134 3133 3132 3130 3129 3128 3126 3125 3123 3122 3121 3120 3118 3118 3117 3116 3115 3114 3113 3112 3111 3109 3108 3106 3104 3103 3101 3099 3098 3096 3095 3093 3092 3090 3089 3087 3086 3084 3083 3082 3080 3079 3078 3076 3075 3074 3073 3072 3072 3072 3071 3071 3072 3072 3073 3073 3073 3073 3073 3073 3072 3071 3070 3069 3069 3068 3067 3066 3066 3065 3065 3065 3065 3065 3065 3066 3066 3067 3067 3068 3068 3069 3069 3070 3071 3072 3073 3074 3076 3078 3079 3081
3144 3143 3143 3141 3140 3139 3138 3137 3136 3134 3133 3132 3130 3129 3128 3127 3125 3124 3123 3121 3120 3119 3118 3116 3115 3114 3113 3112 3111 3110 3108 3107 3106 3104 3103 3101 3099 3098 3096 3094 3093 3091 3089 3087 3086 3084 3083 3081 3079 3078 3076 3075 3073 3071 3070 3068 3067 3066 3065 3064 3063 3063 3063 3063 3063 3063 3064 3064 3065 3066 3066 3066 3066 3065 3065 3064 3063 3063 3062 3061 3061 3060 3060 3060 3059 3059 3059 3060 3060 3061 3062 3062 3063 3063 3063 3064 3065 3067 3068 3069 3071 3072 3074
3143 3141 3140 3139 3138 3137 3136 3134 3133 3132 3131 3129 3128 3127 3125 3124 3123 3122 3120 3119 3118 3117 3115 3114 3113 3112 3110 3109 3108 3106 3105 3103 3102 3100 3098 3097 3096 3094 3092 3090 3088 3087 3085 3083 3081 3079 3078 3076 3074 3073 3071 3069 3068 3066 3064 3063 3061 3060 3059 3058 3057 3056 3056 3055 3055 3055 3055 3056 3056 3057 3058 3059 3059 3059 3059 3059 3058 3058 3058 3057 3056 3055 3055 3054 3054 3054 3054 3054 3054 3055 3056 3056 3057 3057 3057 3058 3058 3060 3061 3063 3064 3066 3068
3140 3139 3138 3137 3136 3134 3133 3132 3131 3129 3128 3127 3126 3124 3123 3122 3121 3119 3118 3117 3116 3114 3113 3112 3110 3109 3108 3106 3104 3102 3101 3099 3098 3096 3095 3093 3092 3090 3088 3086 3084 3083 3081 3079 3077 3075 3073 3071 3070 3068 3066 3064 3063 3061 3059 3058 3056 3055 3054 3053 3052 3051 3050 3050 3049 3048 3048 3048 3048 3049 3049 3050 3051 3052 3053 3053 3053 3053 3052 3051 3051 3050 3050 3049 3049 3049 3049 3048 3048 3049 3049 3050 3050 3051 3051 3051 3052 3053 3055 3056 3058 3059 3061
3138 3137 3136 3134 3133 3132 3131 3130 3128 3127 3126 3125 3123 3122 3121 3120 3118 3118 3116 3115 3113 3112 3111 3109 3108 3106 3104 3103 3101 3099 3097 3095 3094 3092 3091 3089 3088 3086 3084 3082 3081 3079 3077 3075 3073 3071 3069 3067 3065 3063 3062 3060 3058 3056 3055 3053 3052 3050 3049 3048 3047 3046 3045 3045 3044 3043 3043 3042 3042 3042 3042 3043 3043 3044 3045 3045 3046 3046 3046 3045 3045 3044 3044 3044 3043 3043 3043 3043 3043 3043 3043 3043 3044 3044 3045 3045 3046 3047 3048 3050 3051 3053 3054
3136 3135 3133 3132 3131 3130 3129 3128 3126 3125 3123 3123 3121 3120 3119 3118 3116 3115 3114 3113 3111 3110 3108 3107 3105 3103 3101 3099 3098 3096 3094 3092 3091 3089 3087 3086 3084 3082 3080 3078 3077 3075 3073 3071 3069 3067 3065 3063 3061 3059 3057 3055 3053 3052 3050 3049 3048 3046 3045 3044 3043 3042 3041 3040 3039 3038 3038 3037 3037 3037 3037 3037 3037 3037 3037 3038 3038 3039 3039 3039 3038 3038 3038 3038 3037 3037 3037 3037 3037 3037 3037 3037 3038 3038 3038 3039 3039 3040 3042 3043 3045 3046 3047
3134 3133 3132 3130 3129 3128 3127 3125 3124 3123 3122 3120 3119 3118 3117 3115 3114 3113 3112 3110 3109 3108 3106 3104 3103 3100 3098 3097 3095 3093 3091 3089 3087 3086 3084 3082 3080 3078 3077 3075 3073 3071 3069 3067 3065 3063 3061 3059 3057 3055 3053 3051 3049 3048 3046 3045 3044 3043 3041 3040 3039 3038 3037 3036 3035 3034 3033 3033 3032 3032 3032 3032 3031 3031 3031 3031 3031 3032 3032 3032 3032 3032 3031 3031 3031 3030 3030 3030 3030 3030 3030 3031 3031 3032 3032 3033 3033 3033 3034 3036 3038 3039 3041
3132 3131 3130 3128 3127 3126 3125 3123 3122 3121 3119 3118 3117 3116 3115 3113 3112 3111 3109 3108 3107 3105 3103 3102 3100 3098 3096 3094 3092 3090 3088 3086 3084 3082 3081 3079 3077 3075 3073 3071 3069 3067 3065 3063 3062 3059 3058 3055 3053 3051 3049 3047 3045 3044 3042 3041 3040 3039 3038 3036 3035 3034 3033 3032 3031 3030 3029 3028 3028 3027 3027 3026 3026 3026 3025 3025 3025 3025 3025 3025 3025 3025 3025 3024 3024 3023 3023 3023 3023 3023 3023 3024 3024 3025 3026 3027 3027 3028 3028 3029 3031 3033 3034
3130 3129 3128 3127 3125 3124 3123 3121 3120 3119 3118 3116 3115 3114 3113 3111 3110 3108 3107 3105 3104 3102 3101 3099 3097 3095 3093 3091 3089 3088 3086 3083 3081 3079 3077 3075 3073 3072 3069 3068 3065 3063 3062 3060 3058 3056 3054 3052 3050 3048 3046 3043 3042 3040 3039 3038 3037 3035 3034 3033 3032 3030 3029 3028 3027 3026 3025 3024 3023 3023 3022 3022 3021 3021 3020 3019 3019 3019 3019 3018 3018 3018 3018 3018 3017 3017 3016 3016 3016 3016 3016 3016 3017 3018 3019 3020 3021 3022 3022 3023 3023 3026 3028
3128 3127 3126 3124 3123 3122 3121 3119 3118 3117 3115 3114 3113 3112 3110 3109 3107 3106 3104 3103 3101 3099 3098 3096 3094 3092 3090 3088 3087 3085 3083 3081 3079 3076 3074 3072 3070 3068 3066 3064 3062 3060 3058 3057 3055 3053 3051 3049 3047 3045 3043 3041 3039 3038 3036 3035 3033 3032 3031 3029 3028 3027 3025 3024 3023 3022 3021 3020 3019 3018 3018 3017 3017 3016 3015 3014 3014 3013 3013 3012 3012 3012 3011 3011 3010 3010 3010 3009 3009 3009 3009 3009 3010 3011 3012 3013 3014 3015 3016 3016 3017 3018 3021
3126 3125 3123 3122 3121 3120 3118 3117 3116 3114 3113 3112 3111 3109 3108 3107 3105 3103 3102 3100 3098 3097 3095 3093 3091 3089 3087 3086 3084 3082 3080 3078 3076 3074 3072 3069 3067 3065 3063 3061 3059 3057 3055 3053 3052 3050 3048 3046 3044 3042 3040 3038 3037 3035 3033 3032 3031 3029 3028 3026 3025 3023 3022 3021 3019 3018 3017 3016 3015 3014 3013 3012 3012 3011 3010 3009 3009 3008 3008 3007 3006 3006 3005 3004 3004 3003 3003 3003 3002 3002 3002 3002 3002 3003 3004 3005 3007 3008 3009 3010 3011 3011 3013
3124 3123 3121 3120 3119 3118 3116 3115 3113 3112 3111 3109 3108 3107 3105 3104 3103 3101 3099 3097 3095 3093 3092 3090 3088 3086 3084 3083 3081 3079 3077 3075 3073 3071 3069 3067 3064 3062 3060 3058 3056 3054 3052 3050 3049 3047 3045 3043 3042 3040 3038 3036 3034 3033 3031 3029 3028 3026 3024 3023 3021 3020 3018 3017 3016 3015 3013 3012 3011 3010 3009 3008 3007 3007 3006 3005 3004 3003 3002 3001 3001 3000 2999 2998 2998 2997 2997 2996 2996 2996 2995 2995 2996 2996 2997 2998 3000 3001 3003 3004 3005 3005 3006
3122 3120 3119 3118 3117 3115 3114 3113 3111 3110 3108 3107 3106 3104 3103 3101 3100 3098 3096 3094 3093 3091 3089 3087 3085 3083 3081 3079 3078 3076 3074 3072 3071 3068 3066 3064 3062 3059 3058 3056 3053 3052 3050 3048 3046 3044 3043 3041 3039 3038 3036 3034 3032 3030 3029 3027 3025 3023 3022 3020 3018 3017 3015 3014 3013 3011 3010 3008 3007 3005 3004 3003 3003 3002 3002 3000 2999 2998 2997 2996 2995 2995 2994 2993 2992 2991 2991 2990 2990 2989 2989 2989 2989 2989 2990 2991 2992 2994 2995 2997 2998 2999 3000
3120 3118 3117 3116 3115 3113 3112 3110 3109 3108 3106 3105 3103 3102 3100 3099 3097 3096 3094 3092 3090 3088 3086 3084 3083 3080 3078 3077 3075 3073 3071 3069 3068 3066 3063 3061 3059 3057 3055 3053 3051 3049 3047 3045 3043 3042 3040 3039 3037 3035 3034 3032 3030 3028 3026 3024 3023 3021 3019 3017 3015 3013 3012 3010 3009 3007 3006 3004 3003 3002 3000 2999 2998 2998 2997 2996 2995 2993 2992 2992 2991 2990 2989 2988 2987 2987 2986 2985 2984 2984 2983 2983 2983 2983 2983 2984 2985 2986 2988 2990 2991 2993 2994
3118 3117 3115 3114 3113 3111 3110 3108 3107 3105 3104 3102 3101 3099 3098 3096 3094 3093 3091 3089 3088 3085 3083 3082 3080 3078 3076 3074 3072 3070 3068 3066 3064 3063 3061 3059 3057 3054 3052 3050 3048 3046 3045 3043 3041 3039 3038 3036 3035 3033 3031 3030 3028 3026 3024 3022 3020 3019 3017 3015 3013 3011 3009 3007 3005 3003 3002 3000 2999 2998 2996 2995 2994 2994 2993 2992 2991 2990 2988 2987 2986 2986 2984 2983 2982 2981 2981 2980 2980 2979 2979 2978 2977 2977 2977 2978 2978 2979 2980 2982 2984 2985 2986
3116 3115 3113 3112 3111 3109 3108 3106 3105 3103 3102 3100 3098 3097 3095 3093 3092 3090 3088 3087 3085 3083 3081 3079 3077 3075 3073 3071 3069 3067 3065 3063 3061 3060 3058 3056 3054 3052 3050 3048 3046 3044 3043 3041 3039 3037 3036 3034 3033 3031 3029 3027 3025 3023 3021 3019 3018 3016 3015 3013 3011 3008 3006 3004 3002 3000 2998 2997 2995 2994 2993 2991 2990 2989 2989 2988 2988 2986 2985 2984 2983 2982 2981 2980 2978 2977 2976 2975 2975 2975 2974 2973 2972 2971 2971 2971 2972 2973 2974 2975 2976 2977 2978
3114 3113 3112 3110 3109 3108 3106 3104 3103 3101 3099 3098 3096 3094 3093 3091 3089 3088 3086 3084 3082 3080 3078 3076 3074 3072 3070 3068 3066 3064 3062 3060 3058 3057 3055 3053 3052 3050 3048 3046 3044 3042 3040 3039 3037 3036 3034 3032 3030 3028 3027 3025 3023 3021 3019 3017 3015 3013 3012 3010 3008 3006 3004 3001 2999 2997 2995 2993 2992 2990 2989 2988 2986 2985 2985 2984 2983 2983 2982 2981 2979 2978 2977 2976 2975 2974 2972 2972 2971 2970 2969 2968 2967 2966 2966 2966 2967 2968 2968 2970 2971 2972 2973
3113 3111 3110 3108 3107 3106 3104 3103 3101 3099 3098 3096 3094 3092 3090 3089 3087 3085 3083 3081 3079 3077 3075 3073 3072 3069 3068 3066 3064 3062 3059 3057 3055 3054 3053 3051 3049 3048 3046 3044 3042 3040 3039 3037 3036 3034 3032 3030 3028 3027 3025 3023 3021 3019 3017 3015 3013 3011 3009 3008 3006 3004 3001 2999 2996 2994 2992 2990 2988 2987 2985 2984 2983 2982 2981 2980 2979 2979 2978 2977 2976 2974 2973 2972 2971 2970 2969 2968 2967 2966 2964 2963 2962 2961 2960 2961 2961 2962 2963 2964 2965 2967 2968
3111 3110 3108 3107 3105 3104 3102 3100 3099 3097 3095 3093 3092 3090 3088 3087 3084 3083 3081 3079 3077 3075 3073 3071 3069 3067 3065 3063 3061 3059 3057 3055 3053 3051 3050 3048 3047 3045 3043 3042 3040 3039 3037 3035 3034 3032 3030 3028 3026 3024 3023 3021 3019 3017 3015 3013 3011 3009 3007 3005 3003 3001 2999 2997 2994 2992 2989 2987 2985 2984 2982 2981 2979 2978 2977 2976 2976 2975 2974 2973 2972 2971 2970 2969 2967 2966 2965 2964 2963 2962 2960 2959 2958 2957 2956 2956 2956 2956 2957 2958 2958 2960 2961
3110 3108 3107 3105 3103 3102 3100 3098 3097 3095 3093 3091 3090 3088 3086 3084 3082 3080 3078 3077 3075 3073 3071 3069 3067 3065 3063 3061 3059 3057 3055 3053 3051 3049 3048 3046 3045 3043 3042 3040 3038 3037 3035 3034 3032 3030 3028 3027 3024 3023 3021 3018 3017 3015 3013 3011 3008 3006 3004 3002 3000 2998 2996 2994 2992 2989 2987 2985 2983 2981 2979 2978 2977 2975 2974 2973 2972 2971 2970 2969 2968 2967 2966 2965 2963 2962 2961 2960 2959 2958 2956 2955 2954 2953 2952 2951 2951 2951 2952 2952 2953 2954 2955
3108 3107 3105 3103 3102 3100 3098 3097 3095 3093 3091 3089 3088 3086 3084 3082 3080 3078 3076 3075 3073 3071 3069 3067 3065 3063 3061 3059 3057 3055 3053 3051 3049 3048 3046 3044 3043 3041 3040 3038 3037 3035 3033 3032 3030 3028 3027 3025 3023 3021 3019 3017 3015 3013 3011 3009 3006 3004 3002 3000 2998 2995 2993 2991 2988 2986 2984 2982 2980 2978 2977 2975 2974 2972 2971 2970 2968 2968 2967 2966 2965 2964 2963 2961 2960 2958 2957 2956 2954 2953 2953 2951 2950 2948 2948 2947 2947 2947 2948 2948 2950 2951 2952
3106 3105 3103 3102 3100 3098 3096 3094 3093 3091 3089 3087 3085 3083 3082 3080 3078 3076 3074 3073 3071 3069 3067 3065 3063 3061 3059 3057 3055 3053 3051 3049 3048 3046 3044 3043 3041 3040 3038 3036 3035 3033 3032 3030 3028 3027 3025 3023 3021 3019 3017 3015 3013 3011 3008 3007 3004 3002 2999 2997 2995 2992 2990 2988 2985 2983 2981 2979 2978 2976 2974 2973 2971 2970 2968 2967 2965 2964 2963 2962 2961 2960 2959 2958 2957 2955 2953 2952 2950 2949 2948 2947 2946 2945 2944 2943 2943 2943 2944 2945 2947 2948 2949
3104 3103 3101 3100 3098 3096 3094 3093 3091 3089 3087 3085 3083 3081 3079 3078 3076 3074 3072 3070 3068 3066 3065 3063 3061 3059 3058 3055 3053 3051 3049 3047 3045 3044 3043 3041 3039 3038 3036 3035 3033 3031 3030 3028 3026 3025 3023 3021 3019 3017 3015 3013 3011 3009 3007 3004 3002 3000 2997 2995 2992 2990 2987 2985 2982 2980 2978 2976 2974 2973 2972 2970 2969 2967 2965 2964 2963 2961 2960 2959 2958 2957 2956 2955 2953 2952 2950 2948 2947 2945 2944 2943 2942 2941 2940 2939 2939 2939 2940 2941 2943 2945 2946
3103 3101 3099 3098 3096 3094 3093 3091 3089 3087 3085 3083 3081 3079 3077 3075 3073 3072 3070 3068 3066 3064 3062 3061 3059 3057 3055 3053 3052 3049 3047 3045 3043 3042 3040 3039 3038 3036 3034 3033 3031 3029 3028 3026 3024 3023 3021 3019 3018 3015 3013 3011 3009 3007 3005 3003 3000 2998 2995 2993 2990 2988 2985 2982 2980 2977 2975 2973 2971 2970 2969 2968 2966 2965 2963 2962 2960 2958 2957 2956 2954 2953 2952 2952 2950 2949 2947 2945 2943 2942 2940 2939 2938 2938 2937 2936 2935 2935 2936 2936 2937 2939 2941
3101 3099 3098 3096 3094 3092 3090 3088 3087 3085 3083 3081 3079 3077 3075 3073 3071 3070 3068 3066 3064 3062 3060 3058 3057 3055 3053 3051 3050 3048 3045 3043 3042 3040 3038 3037 3035 3034 3032 3030 3029 3027 3026 3024 3023 3021 3019 3017 3015 3013 3012 3009 3007 3005 3003 3001 2998 2996 2993 2991 2988 2985 2983 2980 2978 2975 2973 2971 2968 2967 2966 2965 2964 2963 2961 2959 2958 2956 2954 2953 2952 2950 2949 2948 2947 2946 2944 2943 2940 2938 2937 2935 2935 2934 2933 2932 2931 2932 2934 2935 2935 2936 2938
3099 3097 3095 3094 3092 3090 3088 3087 3085 3083 3081 3079 3077 3075 3073 3071 3069 3068 3066 3064 3063 3060 3058 3056 3054 3053 3051 3049 3048 3046 3044 3042 3040 3038 3036 3034 3033 3032 3030 3028 3027 3025 3023 3022 3020 3018 3017 3015 3013 3011 3009 3008 3005 3003 3001 2999 2997 2994 2991 2989 2986 2983 2981 2978 2976 2973 2971 2968 2967 2965 2963 2963 2962 2960 2959 2957 2956 2954 2952 2951 2949 2947 2946 2945 2944 2943 2942 2940 2938 2935 2933 2932 2931 2930 2929 2928 2927 2927 2929 2931 2933 2934 2935
3097 3095 3093 3092 3090 3088 3087 3085 3083 3081 3079 3077 3075 3073 3071 3069 3067 3065 3064 3062 3061 3059 3057 3054 3052 3050 3048 3047 3045 3043 3041 3039 3037 3036 3034 3033 3031 3029 3028 3026 3025 3023 3022 3020 3018 3016 3014 3013 3011 3009 3008 3006 3004 3002 2999 2997 2994 2992 2989 2987 2984 2982 2979 2976 2974 2971 2969 2967 2964 2963 2961 2960 2959 2958 2956 2955 2953 2952 2950 2948 2947 2945 2943 2942 2941 2940 2939 2937 2935 2933 2931 2929 2927 2926 2925 2924 2923 2923 2923 2924 2926 2929 2932
3095 3093 3091 3090 3088 3086 3084 3083 3081 3079 3077 3075 3073 3072 3069 3068 3065 3063 3062 3060 3058 3057 3055 3053 3051 3048 3046 3045 3043 3041 3039 3037 3035 3033 3032 3030 3028 3027 3025 3024 3022 3020 3019 3018 3016 3014 3011 3010 3008 3007 3005 3004 3003 3000 2998 2995 2993 2990 2988 2985 2982 2980 2977 2974 2972 2969 2967 2964 2963 2960 2959 2957 2956 2955 2953 2952 2951 2949 2948 2946 2944 2943 2941 2939 2938 2937 2936 2934 2933 2930 2928 2926 2924 2923 2921 2921 2920 2919 2920 2920 2921 2923 2926
3093 3091 3089 3088 3086 3084 3083 3081 3079 3077 3075 3074 3072 3070 3068 3066 3063 3062 3060 3058 3056 3055 3053 3051 3049 3047 3045 3043 3041 3039 3037 3035 3033 3031 3029 3028 3026 3024 3023 3022 3020 3018 3016 3014 3013 3012 3009 3008 3006 3005 3004 3002 3000 2998 2996 2993 2991 2988 2985 2983 2980 2978 2975 2972 2970 2967 2965 2962 2960 2958 2957 2955 2953 2952 2950 2949 2947 2946 2945 2943 2942 2940 2938 2936 2934 2933 2933 2931 2930 2928 2925 2923 2921 2919 2918 2917 2916 2916 2916 2917 2919 2921 2922
3091 3089 3087 3086 3084 3082 3080 3079 3077 3075 3073 3072 3070 3068 3066 3064 3062 3060 3058 3056 3054 3053 3051 3049 3048 3045 3043 3041 3039 3037 3035 3033 3031 3028 3027 3025 3024 3022 3019 3018 3017 3017 3015 3012 3010 3008 3007 3005 3003 3003 3002 3000 2998 2996 2994 2992 2989 2986 2983 2980 2978 2975 2973 2970 2968 2965 2963 2960 2958 2956 2954 2953 2951 2949 2948 2946 2944 2943 2941 2940 2939 2937 2935 2933 2932 2930 2929 2928 2927 2925 2923 2921 2918 2916 2915 2914 2913 2913 2913 2914 2918 2920 2920
3088 3087 3085 3083 3082 3080 3078 3077 3075 3073 3072 3070 3068 3066 3064 3062 3060 3058 3056 3054 3052 3050 3049 3047 3046 3044 3042 3040 3038 3035 3033 3030 3028 3026 3024 3022 3021 3020 3018 3015 3013 3013 3013 3011 3008 3006 3004 3003 3001 2999 2998 2997 2995 2993 2991 2989 2987 2983 2981 2978 2975 2973 2970 2968 2965 2963 2960 2958 2956 2954 2952 2950 2949 2947 2945 2943 2942 2940 2938 2937 2935 2934 2932 2930 2928 2927 2926 2925 2923 2922 2920 2918 2916 2914 2913 2912 2911 2910 2910 2911 2913 2916 2917
3086 3085 3083 3081 3080 3078 3076 3075 3073 3071 3070 3068 3066 3064 3062 3060 3058 3056 3054 3053 3051 3049 3047 3045 3044 3042 3040 3039 3036 3033 3031 3028 3026 3024 3023 3020 3018 3016 3016 3015 3012 3009 3008 3007 3006 3003 3001 3000 2999 2997 2995 2994 2993 2991 2988 2987 2984 2981 2978 2975 2973 2970 2968 2965 2963 2960 2958 2956 2953 2952 2950 2948 2946 2944 2943 2941 2939 2937 2935 2933 2932 2930 2929 2927 2926 2924 2923 2922 2920 2919 2917 2915 2913 2912 2910 2909 2908 2908 2907 2908 2909 2911 2912
3084 3083 3081 3079 3078 3076 3074 3073 3071 3069 3068 3066 3064 3063 3060 3058 3056 3054 3052 3050 3049 3047 3045 3043 3042 3040 3038 3036 3034 3032 3029 3027 3024 3022 3019 3018 3016 3013 3011 3011 3011 3009 3006 3004 3003 3001 2998 2996 2996 2995 2993 2992 2990 2988 2986 2983 2981 2979 2976 2973 2971 2968 2966 2963 2960 2958 2955 2953 2951 2949 2947 2945 2944 2942 2940 2938 2936 2934 2933 2931 2928 2927 2925 2924 2923 2921 2920 2919 2917 2916 2914 2913 2911 2909 2908 2908 2907 2906 2905 2906 2906 2907 2907
3083 3081 3079 3077 3075 3074 3072 3070 3069 3067 3066 3064 3062 3060 3058 3056 3054 3052 3050 3048 3046 3045 3043 3041 3039 3038 3036 3033 3031 3030 3028 3024 3022 3020 3017 3014 3013 3012 3008 3005 3005 3006 3004 3002 3001 2998 2995 2992 2991 2991 2990 2988 2987 2985 2983 2981 2979 2977 2974 2972 2969 2966 2963 2961 2958 2955 2953 2951 2949 2947 2945 2943 2941 2939 2937 2935 2933 2932 2930 2928 2926 2924 2922 2920 2919 2918 2917 2915 2914 2913 2911 2910 2908 2907 2907 2906 2905 2904 2904 2905 2905 2905 2905
3080 3079 3077 3075 3073 3072 3070 3068 3067 3065 3063 3062 3060 3058 3056 3054 3052 3050 3048 3046 3044 3042 3041 3039 3036 3034 3033 3032 3029 3027 3026 3022 3019 3018 3016 3012 3009 3009 3008 3003 3001 3000 3001 2999 2998 2998 2996 2991 2989 2988 2988 2985 2984 2983 2981 2978 2977 2975 2973 2970 2967 2964 2961 2958 2955 2953 2950 2948 2946 2944 2942 2940 2938 2937 2934 2933 2931 2929 2927 2925 2923 2922 2919 2918 2916 2914 2913 2912 2911 2910 2908 2907 2906 2905 2904 2903 2902 2902 2901 2901 2902 2903 2903
3078 3077 3075 3073 3071 3070 3068 3066 3065 3063 3061 3060 3058 3056 3054 3052 3050 3048 3046 3044 3043 3040 3038 3037 3035 3032 3030 3029 3027 3025 3023 3021 3017 3014 3013 3011 3007 3004 3003 3003 2999 2994 2993 2992 2992 2992 2993 2991 2988 2986 2985 2983 2982 2980 2979 2976 2974 2972 2970 2967 2964 2962 2959 2956 2953 2950 2948 2946 2944 2942 2940 2938 2936 2934 2932 2930 2928 2927 2925 2923 2921 2919 2917 2915 2913 2911 2910 2909 2908 2907 2905 2904 2903 2902 2901 2901 2900 2899 2898 2897 2898 2899 2900
3076 3074 3073 3071 3069 3068 3066 3064 3063 3061 3059 3058 3056 3054 3052 3050 3048 3046 3044 3043 3040 3038 3036 3034 3033 3031 3028 3026 3025 3023 3020 3018 3016 3013 3010 3009 3007 3002 2998 2997 2996 2994 2990 2989 2986 2985 2985 2986 2985 2983 2983 2981 2979 2978 2978 2976 2973 2969 2967 2964 2962 2959 2956 2953 2951 2948 2946 2943 2941 2939 2938 2936 2934 2932 2930 2928 2926 2924 2922 2920 2918 2916 2914 2912 2910 2908 2907 2907 2906 2904 2903 2902 2900 2900 2899 2898 2898 2897 2897 2896 2896 2895 2896
3074 3072 3071 3069 3067 3065 3064 3062 3060 3058 3057 3055 3054 3052 3050 3048 3046 3044 3043 3040 3038 3037 3034 3032 3030 3028 3026 3024 3023 3021 3019 3016 3014 3011 3008 3006 3005 3003 2998 2993 2992 2991 2990 2989 2986 2983 2981 2980 2980 2981 2982 2980 2977 2975 2974 2973 2971 2968 2964 2961 2958 2956 2953 2951 2948 2946 2943 2942 2939 2937 2935 2933 2931 2929 2927 2925 2923 2921 2919 2917 2915 2913 2910 2908 2906 2905 2904 2904 2903 2902 2900 2899 2898 2897 2897 2896 2896 2896 2895 2895 2895 2894 2894
3072 3070 3068 3067 3065 3063 3062 3060 3058 3056 3054 3053 3051 3050 3048 3046 3044 3043 3041 3039 3037 3035 3033 3030 3028 3026 3024 3022 3020 3018 3018 3015 3013 3010 3007 3003 3001 3001 2999 2995 2990 2986 2983 2981 2980 2980 2979 2978 2976 2976 2978 2979 2976 2972 2969 2968 2967 2965 2962 2959 2956 2953 2950 2948 2945 2943 2941 2939 2937 2935 2933 2930 2928 2926 2924 2922 2920 2918 2916 2914 2911 2909 2907 2905 2903 2902 2902 2901 2901 2899 2898 2897 2896 2895 2894 2894 2893 2893 2893 2893 2893 2893 2893
3069 3068 3066 3064 3063 3061 3059 3058 3056 3054 3052 3050 3049 3047 3046 3044 3042 3041 3039 3037 3035 3033 3031 3029 3026 3024 3022 3020 3018 3016 3014 3013 3011 3008 3007 3003 2998 2996 2995 2994 2991 2987 2983 2979 2976 2974 2974 2974 2973 2971 2972 2975 2974 2971 2967 2964 2963 2961 2959 2957 2954 2951 2948 2945 2942 2940 2938 2936 2934 2933 2930 2928 2926 2923 2922 2919 2917 2915 2913 2910 2908 2906 2903 2901 2900 2899 2898 2898 2898 2897 2896 2894 2893 2893 2892 2892 2891 2891 2890 2890 2889 2889 2890
3067 3065 3064 3062 3060 3059 3057 3055 3053 3052 3050 3048 3047 3045 3043 3042 3040 3038 3037 3035 3033 3031 3029 3027 3025 3022 3019 3018 3016 3014 3012 3011 3008 3005 3004 3003 2999 2995 2991 2990 2989 2988 2986 2983 2979 2975 2971 2969 2968 2967 2965 2968 2971 2971 2967 2963 2960 2958 2956 2953 2951 2948 2945 2942 2939 2937 2935 2933 2931 2929 2928 2926 2923 2921 2918 2916 2914 2912 2909 2907 2905 2902 2900 2898 2897 2896 2896 2895 2895 2894 2893 2892 2891 2890 2890 2889 2889 2888 2888 2887 2887 2887 2887
3065 3063 3061 3060 3058 3057 3055 3053 3051 3049 3048 3046 3044 3043 3041 3040 3038 3037 3035 3033 3031 3029 3027 3025 3023 3020 3017 3015 3013 3012 3010 3009 3007 3004 3001 2999 2998 2996 2992 2987 2985 2983 2982 2980 2978 2975 2972 2968 2965 2962 2960 2959 2963 2966 2966 2962 2958 2955 2952 2950 2947 2944 2942 2939 2936 2934 2932 2930 2928 2926 2924 2923 2920 2918 2915 2913 2910 2908 2906 2904 2901 2899 2897 2895 2894 2893 2893 2893 2892 2892 2890 2889 2888 2888 2888 2887 2886 2886 2885 2885 2885 2885 2885
3062 3061 3059 3058 3056 3054 3053 3051 3049 3047 3045 3044 3042 3041 3039 3038 3036 3034 3033 3031 3029 3027 3025 3023 3020 3018 3016 3013 3011 3009 3007 3006 3004 3003 3000 2997 2995 2993 2991 2988 2983 2980 2978 2975 2973 2972 2970 2968 2965 2961 2958 2954 2953 2956 2960 2959 2957 2953 2949 2947 2944 2941 2938 2936 2933 2931 2928 2927 2925 2923 2921 2919 2917 2915 2912 2909 2907 2905 2902 2900 2898 2896 2893 2892 2891 2890 2890 2890 2890 2889 2888 2888 2887 2886 2885 2885 2884 2883 2883 2883 2883 2883 2883
3060 3058 3057 3055 3053 3052 3050 3048 3047 3045 3043 3041 3040 3038 3037 3035 3034 3032 3031 3029 3027 3025 3023 3021 3018 3016 3014 3011 3009 3007 3005 3003 3001 2999 2998 2996 2993 2990 2988 2986 2983 2980 2977 2974 2972 2969 2967 2965 2964 2961 2958 2953 2950 2948 2950 2953 2953 2951 2948 2945 2942 2938 2935 2932 2930 2928 2925 2923 2921 2919 2917 2915 2913 2911 2909 2906 2904 2901 2899 2897 2894 2892 2890 2888 2888 2887 2887 2887 2887 2887 2886 2886 2885 2884 2883 2883 2882 2882 2882 2882 2881 2881 2881
3058 3056 3054 3053 3051 3049 3048 3046 3044 3043 3041 3039 3038 3036 3035 3033 3032 3030 3028 3027 3025 3023 3021 3019 3017 3014 3012 3009 3007 3004 3003 3001 2999 2997 2995 2993 2991 2988 2985 2983 2981 2979 2976 2973 2971 2968 2966 2963 2961 2958 2956 2953 2949 2945 2943 2944 2946 2945 2943 2942 2939 2936 2933 2930 2927 2924 2922 2920 2918 2916 2914 2912 2910 2908 2906 2903 2900 2898 2895 2893 2890 2888 2887 2885 2885 2884 2884 2884 2884 2884 2884 2883 2883 2883 2882 2881 2880 2880 2880 2879 2879 2878 2878